This is the latest recevied weather packets stored in our database for station/object K5SVV. If no packets are shown the sender has not sent any weather packets the latest 10 day(s).
| Time | Temp. | Humidity | Pressure | Rain* | Wind** | Luminosity | Snow |
|---|---|---|---|---|---|---|---|
| 1777730590 | 14.44° C | 81% | 1021 hPa | 0 mm | - | 343 W/m² | - |
| 1777730286 | 14.44° C | 80% | 1020.6 hPa | 0 mm | - | 333 W/m² | - |
| 1777729983 | 13.89° C | 79% | 1020.8 hPa | 0 mm | - | 305 W/m² | - |
| 1777729678 | 13.89° C | 80% | 1020.9 hPa | 0 mm | - | 288 W/m² | - |
| 1777729376 | 13.89° C | 80% | 1020.6 hPa | 0 mm | - | 283 W/m² | - |
| 1777729072 | 13.89° C | 81% | 1020.5 hPa | 0 mm | - | 255 W/m² | - |
| 1777728769 | 13.33° C | 80% | 1020.7 hPa | 0 mm | - | 235 W/m² | - |
| 1777728465 | 13.33° C | 81% | 1020.6 hPa | 0 mm | - | 223 W/m² | - |
| 1777728163 | 13.33° C | 81% | 1020.6 hPa | 0 mm | - | 213 W/m² | - |
| 1777727860 | 13.33° C | 81% | 1020.4 hPa | 0 mm | - | 189 W/m² | - |
| 1777727557 | 13.33° C | 81% | 1020.2 hPa | 0 mm | - | 177 W/m² | - |
| 1777727254 | 13.33° C | 82% | 1020.2 hPa | 0 mm | - | 152 W/m² | - |
| 1777726952 | 12.78° C | 82% | 1020.2 hPa | 0 mm | - | 141 W/m² | - |
| 1777726648 | 12.78° C | 83% | 1020.1 hPa | 0 mm | - | 123 W/m² | - |
| 1777726346 | 12.78° C | 83% | 1020.3 hPa | 0 mm | - | 108 W/m² | - |
| 1777726042 | 12.22° C | 84% | 1020.1 hPa | 0 mm | - | 91 W/m² | - |
| 1777725739 | 11.67° C | 85% | 1020.1 hPa | 0 mm | - | 81 W/m² | - |
| 1777725437 | 11.67° C | 86% | 1020 hPa | 0 mm | - | 64 W/m² | - |
| 1777725134 | 11.11° C | 87% | 1020.1 hPa | 0 mm | - | 45 W/m² | - |
| 1777724831 | 11.11° C | 88% | 1020 hPa | 0 mm | - | 37 W/m² | - |
| 1777724527 | 10.56° C | 88% | 1019.9 hPa | 0 mm | - | 30 W/m² | - |
| 1777724226 | 10.56° C | 89% | 1019.7 hPa | 0 mm | - | 25 W/m² | - |
| 1777723923 | 10.56° C | 89% | 1019.7 hPa | 0 mm | - | 21 W/m² | - |
| 1777723619 | 10° C | 90% | 1019.6 hPa | 0 mm | - | 18 W/m² | - |
| 1777723316 | 10° C | 89% | 1019.6 hPa | 0 mm | - | 14 W/m² | - |
* Rain latest hour (hover to see other rain measurements)
** Current wind speed in m/s (hover to see current wind gust speed)